Temp
8 8 8 8 7 7 7 7 7 7 7 8 8 8 7 7 7 8 8 8 7 7 7 6 6 6 6 7 7 7 6 6 6 6 6 6 6 6 6 6 6 6 6 6 6 6 6 6 6 6 6 6 6 6 6 6 6 6 6 6 6 6
8 8 8 8 7 7 7 7 7 7 7 7 7 7 7 7 7 7 8 7 7 7 7 6 6 6 6 6 6 6 6 6 6 6 6 6 6 6 6 6 6 6 6 6 6 6 6 6 6 6 6 6 6 6 6 6 6 6 6 6 6 6
8 8 8 7 7 7 7 7 7 7 7 7 7 7 7 7 7 7 7 7 7 7 7 6 6 6 6 6 6 6 6 6 6 6 6 6 6 6 6 6 6 6 6 6 6 6 6 6 6 6 6 6 6 6 6 6 6 6 6 6 6 6
7 7 7 7 7 7 7 7 7 7 7 7 7 7 7 7 7 7 7 7 7 7 6 6 6 6 6 6 6 6 6 6 6 6 6 6 6 6 6 6 6 6 6 6 6 6 6 6 6 6 5 6 6 6 6 6 6 6 6 6 6 6
8 7 7 7 7 7 7 7 7 7 7 7 7 7 7 7 7 7 7 7 7 6 6 6 6 6 6 6 6 6 6 6 6 6 6 6 6 6 6 6 6 6 6 6 6 6 6 6 6 5 5 5 6 6 6 6 5 5 6 6 6 6
8 8 7 7 7 7 7 7 7 7 7 7 7 7 7 7 6 6 7 7 6 6 6 6 6 6 6 6 6 5 5 5 5 5 6 6 6 6 6 6 6 6 6 6 6 6 6 6 6 5 5 5 5 6 6 6 5 5 6 6 5 5
8 7 7 7 7 7 7 7 7 7 6 6 7 7 7 7 6 6 7 7 6 6 6 6 6 6 6 6 6 5 5 5 5 5 5 5 6 6 6 5 5 5 6 6 6 5 5 5 5 5 5 5 5 5 6 6 5 5 6 5 5 5
8 7 7 7 7 7 7 7 7 7 7 7 7 7 7 7 6 6 6 6 6 6 6 6 6 6 6 6 6 6 5 5 5 5 5 5 5 5 5 5 5 5 5 5 5 5 5 5 5 5 5 5 5 5 5 5 5 5 5 5 5 5
8 7 7 7 7 7 7 7 7 7 7 7 7 7 7 7 6 6 6 6 6 6 6 6 6 6 6 6 6 5 5 5 5 5 5 5 5 5 5 5 5 5 5 5 5 5 5 5 5 5 5 5 5 5 5 5 5 5 5 5 5 5
7 7 7 7 7 7 7 7 7 7 7 7 7 7 7 6 6 6 6 6 6 6 6 6 6 6 6 6 5 5 5 5 5 5 5 5 5 5 5 5 5 5 5 5 5 5 5 5 5 4 4 4 4 4 5 5 5 5 5 5 5 5
7 7 7 7 7 7 7 7 7 7 7 7 7 7 6 6 6 6 6 6 6 6 6 6 6 6 6 6 6 5 5 5 5 5 5 5 5 5 5 4 4 4 5 5 5 5 5 5 5 4 4 4 4 4 4 5 5 5 5 5 5 5
7 7 7 7 7 7 7 7 7 7 7 7 7 7 6 6 6 6 6 6 6 6 6 6 6 6 6 6 6 6 5 5 5 5 5 5 5 5 5 4 4 4 5 5 5 5 4 4 5 4 4 4 4 4 4 4 4 4 4 5 5 5
7 7 7 7 7 7 7 7 7 7 7 7 7 7 6 6 6 6 7 6 6 6 6 6 6 6 6 6 6 6 5 5 5 5 5 5 5 4 4 4 4 4 5 5 4 4 4 4 5 4 4 4 4 4 4 4 4 4 4 4 5 5
7 7 7 7 7 7 7 7 7 7 7 7 7 7 6 6 6 6 6 6 6 6 6 6 6 6 6 6 6 6 6 5 5 5 5 5 4 4 4 4 4 4 4 4 4 4 4 4 4 4 4 4 4 4 4 4 4 4 4 4 4 4
7 7 7 7 7 7 7 7 7 6 6 7 7 7 6 6 6 6 6 6 6 6 6 6 6 6 6 6 6 6 6 6 6 5 5 5 5 4 4 4 4 4 4 4 4 4 4 4 4 4 4 4 4 4 4 4 4 4 4 4 4 4
6 7 7 7 7 7 7 6 6 6 6 7 6 6 6 6 6 6 6 6 6 6 6 6 6 6 6 6 6 6 6 6 6 6 5 5 5 5 4 4 4 4 4 4 4 4 4 4 4 4 4 4 4 4 4 4 4 4 4 4 4 4
6 6 6 7 7 7 7 6 6 6 6 6 6 6 6 6 6 6 6 6 6 6 6 6 6 6 6 6 6 6 6 6 6 6 6 5 5 5 5 5 4 4 4 3 4 4 4 4 3 3 3 3 4 4 4 4 4 3 3 3 3 3
6 6 6 6 6 6 6 7 6 6 7 6 6 6 6 6 6 6 6 6 6 6 6 6 6 6 6 6 6 6 6 6 6 6 6 6 5 5 5 5 5 4 4 4 4 4 4 4 3 3 3 3 3 3 3 4 3 3 3 3 3 3
6 6 6 6 6 6 6 6 6 6 6 6 6 6 6 6 6 6 6 6 6 6 6 6 6 6 6 6 6 6 6 6 6 6 6 6 6 5 5 5 5 4 4 4 4 4 4 4 3 3 3 3 3 3 3 3 3 3 3 2 2 2
6 6 6 6 6 6 6 6 6 6 6 6 6 6 6 6 6 6 6 6 6 6 6 6 6 6 6 6 6 6 5 5 5 5 6 6 6 6 6 5 5 5 4 4 4 4 4 3 3 3 3 3 3 3 3 3 3 3 2 2 2 2
6 6 6 6 6 6 6 6 6 6 5 5 5 6 6 5 5 6 6 6 6 6 6 6 6 6 6 6 6 5 5 5 5 5 5 5 5 5 5 5 5 5 5 4 4 4 3 3 3 3 3 3 3 3 3 3 3 3 2 2 2 2
7 6 7 7 7 6 6 6 6 6 6 5 5 5 5 5 5 5 5 6 6 6 6 6 6 6 6 6 6 5 5 5 5 5 5 5 5 5 5 5 5 5 5 4 4 4 3 3 3 3 3 3 3 3 3 3 3 3 2 2 2 2
7 7 7 7 7 7 7 7 7 7 6 6 5 5 5 5 5 5 5 5 5 5 6 6 6 6 6 5 5 5 5 5 5 5 5 5 5 5 5 5 4 4 4 4 4 4 3 3 3 3 3 3 3 3 3 3 3 3 2 2 2 2
7 7 7 7 7 7 7 7 7 7 7 6 6 6 5 5 5 5 4 4 4 5 5 5 5 5 5 5 5 5 5 5 5 5 5 5 4 4 4 4 4 4 4 4 4 4 3 3 3 3 3 3 3 3 3 3 3 3 2 2 2 2
7 7 7 7 7 7 7 7 7 7 7 6 6 6 6 5 5 5 5 4 4 4 4 5 5 5 5 5 5 5 5 5 5 5 5 4 4 4 4 4 4 4 4 4 4 4 3 3 3 3 3 3 3 3 3 3 3 2 2 2 2 2
8 8 7 7 7 7 7 7 7 7 7 7 6 6 6 6 6 6 5 5 5 5 4 4 4 5 5 5 5 4 5 5 4 4 4 4 5 5 5 5 4 4 4 4 4 4 4 4 3 3 3 4 3 3 3 3 2 2 2 2 2 3
8 8 8 7 7 7 7 7 7 7 7 7 7 6 6 6 6 6 6 6 6 5 5 5 4 5 5 5 5 5 4 4 4 4 4 5 5 5 5 4 4 4 4 4 4 4 4 4 4 3 3 3 3 3 3 3 3 2 2 2 2 3
8 8 8 7 7 7 7 7 7 7 7 7 7 7 6 6 6 6 6 6 6 5 5 5 5 5 5 5 5 5 4 4 4 4 4 5 4 4 4 4 4 4 4 4 4 4 4 4 4 4 3 3 3 3 3 3 3 2 2 2 2 2
8 7 7 7 7 7 7 6 6 6 7 7 7 7 6 6 6 6 6 6 6 6 6 5 5 5 5 5 4 5 5 4 4 4 4 4 4 4 4 4 4 4 4 4 4 4 4 4 4 4 3 3 3 3 3 3 3 2 2 2 2 2
7 7 7 7 7 7 7 6 6 7 7 7 7 7 6 6 6 6 6 6 6 6 6 6 5 5 5 5 5 5 5 5 4 4 4 4 4 4 4 4 4 4 4 3 4 4 4 4 4 4 4 3 3 3 3 3 3 3 3 2 2 2
7 7 7 7 7 7 7 6 7 7 7 7 7 7 6 6 6 6 6 6 6 6 6 5 5 5 5 5 5 5 5 5 4 4 4 4 4 4 4 4 4 4 4 3 3 3 4 4 4 4 4 3 3 3 3 3 3 2 2 2 2 2
7 7 7 7 7 7 7 7 7 7 7 6 6 6 6 6 6 6 6 6 6 6 6 5 5 5 5 5 5 5 5 5 5 4 4 4 4 4 4 4 4 4 4 4 3 3 4 4 4 4 4 3 3 3 3 3 3 2 2 2 2 1
7 7 7 7 7 7 7 7 7 7 6 6 6 6 6 6 6 6 6 6 6 6 6 6 5 5 5 5 5 5 5 5 5 5 5 4 4 4 4 4 4 4 4 4 4 3 3 4 4 4 4 3 3 3 3 3 2 2 2 2 2 2
7 7 7 7 7 7 7 7 7 7 6 6 6 6 6 6 6 5 5 5 5 5 5 5 5 5 5 5 5 5 5 5 5 5 5 5 4 4 4 4 4 4 4 3 4 3 3 3 3 4 4 4 3 3 3 2 2 2 2 2 2 2
7 7 7 7 7 7 7 7 7 6 6 6 6 6 6 5 5 5 5 5 5 5 5 5 5 5 5 5 5 5 5 5 5 5 5 5 4 4 4 4 4 4 3 3 3 3 3 3 3 3 4 4 4 3 3 2 2 2 2 2 2 2
7 7 7 7 7 7 7 7 7 6 6 6 6 6 5 5 5 5 5 5 5 5 5 5 5 5 5 5 5 5 5 5 5 5 5 5 4 4 5 4 4 4 3 3 3 3 3 3 3 3 3 4 4 3 3 2 2 2 2 2 2 2
7 7 7 7 7 7 6 6 6 6 6 6 5 5 5 5 5 5 5 5 5 5 5 5 5 5 5 5 5 5 5 5 5 5 5 5 5 5 5 4 4 3 3 3 3 3 3 3 3 3 3 3 3 3 3 2 2 2 2 2 2 2
Height
3172 3172 3172 3173 3173 3174 3174 3175 3176 3178 3179 3180 3180 3181 3181 3181 3182 3182 3183 3184 3185 3186 3186 3186 3187 3188 3188 3188 3188 3188 3189 3189 3189 3190 3190 3191 3192 3192 3192 3192 3192 3192 3192 3192 3192 3192 3192 3192 3193 3193 3193 3193 3193 3193 3194 3194 3194 3194 3193 3193 3193 3193
3171 3172 3172 3173 3173 3173 3174 3175 3176 3177 3179 3179 3180 3180 3180 3181 3182 3182 3183 3184 3185 3185 3185 3186 3187 3187 3188 3188 3187 3188 3188 3189 3189 3189 3189 3190 3190 3191 3191 3192 3192 3192 3192 3192 3192 3192 3192 3192 3192 3192 3192 3192 3192 3193 3194 3194 3194 3193 3193 3193 3192 3192
3171 3172 3172 3173 3173 3174 3174 3175 3176 3178 3179 3179 3180 3180 3180 3181 3182 3182 3183 3184 3184 3184 3185 3185 3186 3186 3187 3187 3187 3187 3187 3188 3188 3189 3189 3189 3189 3190 3191 3191 3191 3191 3191 3191 3191 3191 3191 3191 3191 3192 3192 3191 3191 3192 3193 3193 3193 3192 3192 3192 3192 3191
3171 3171 3172 3173 3173 3174 3174 3175 3177 3178 3179 3179 3179 3179 3180 3181 3181 3182 3182 3183 3183 3184 3184 3184 3185 3186 3186 3186 3186 3186 3186 3186 3187 3188 3188 3188 3188 3189 3189 3190 3190 3190 3190 3190 3190 3191 3191 3191 3191 3191 3191 3190 3190 3190 3192 3193 3192 3191 3191 3191 3191 3191
3170 3171 3172 3172 3172 3173 3174 3175 3177 3179 3178 3178 3179 3179 3180 3181 3181 3181 3182 3182 3182 3183 3183 3183 3183 3184 3185 3185 3184 3184 3185 3185 3185 3186 3186 3187 3187 3187 3188 3189 3189 3189 3189 3189 3189 3190 3190 3190 3190 3190 3190 3189 3189 3189 3191 3192 3191 3190 3190 3190 3190 3190
3171 3171 3172 3172 3172 3173 3173 3175 3177 3178 3178 3177 3178 3179 3180 3180 3180 3180 3181 3182 3182 3182 3182 3181 3182 3182 3183 3183 3183 3182 3183 3183 3183 3184 3184 3185 3186 3186 3186 3187 3188 3188 3188 3188 3188 3189 3189 3189 3189 3189 3189 3188 3187 3188 3190 3190 3189 3189 3189 3189 3189 3189
3171 3171 3172 3172 3172 3173 3173 3175 3177 3178 3177 3176 3177 3179 3180 3180 3180 3179 3180 3181 3181 3181 3181 3180 3180 3180 3181 3181 3181 3181 3181 3181 3182 3182 3183 3183 3184 3184 3185 3185 3186 3187 3187 3187 3187 3187 3187 3188 3188 3188 3188 3187 3186 3186 3187 3188 3188 3188 3188 3188 3188 3188
3171 3172 3172 3173 3173 3173 3173 3175 3177 3178 3177 3176 3177 3178 3179 3179 3179 3179 3179 3179 3180 3180 3179 3179 3179 3179 3179 3179 3179 3179 3179 3180 3180 3181 3181 3181 3182 3183 3183 3184 3184 3185 3185 3186 3186 3185 3185 3186 3186 3186 3186 3185 3185 3184 3185 3186 3187 3187 3187 3186 3186 3186
3172 3173 3174 3174 3174 3173 3173 3175 3177 3178 3177 3177 3177 3178 3179 3178 3178 3178 3178 3178 3178 3178 3177 3177 3177 3178 3178 3177 3177 3178 3178 3178 3178 3179 3179 3179 3180 3181 3181 3182 3182 3183 3183 3183 3183 3183 3183 3184 3184 3184 3184 3184 3183 3181 3182 3184 3185 3185 3185 3185 3185 3185
3173 3174 3175 3175 3174 3174 3174 3174 3175 3177 3177 3177 3177 3178 3178 3178 3178 3178 3177 3177 3177 3177 3177 3177 3177 3177 3177 3176 3176 3176 3176 3176 3177 3177 3177 3177 3178 3179 3179 3180 3180 3180 3181 3181 3181 3181 3181 3181 3182 3181 3181 3182 3181 3180 3179 3180 3183 3184 3183 3183 3183 3183
3174 3175 3175 3175 3175 3174 3174 3173 3174 3175 3176 3176 3177 3177 3176 3176 3177 3177 3177 3177 3177 3177 3177 3177 3176 3176 3176 3175 3175 3174 3174 3174 3175 3175 3175 3175 3175 3176 3176 3177 3177 3177 3177 3178 3180 3181 3180 3180 3180 3179 3179 3179 3179 3179 3178 3177 3179 3181 3181 3182 3181 3181
3174 3175 3175 3175 3174 3174 3174 3173 3173 3174 3174 3175 3176 3176 3175 3175 3176 3177 3177 3176 3176 3177 3177 3176 3176 3176 3175 3174 3173 3173 3173 3173 3173 3173 3173 3173 3173 3173 3174 3174 3174 3173 3174 3176 3178 3179 3179 3178 3178 3177 3177 3176 3177 3178 3177 3175 3174 3177 3179 3179 3179 3179
3175 3175 3175 3174 3174 3174 3174 3174 3174 3173 3173 3174 3176 3176 3175 3175 3176 3177 3177 3177 3176 3176 3176 3175 3175 3175 3174 3173 3172 3172 3172 3172 3172 3172 3172 3171 3171 3172 3172 3173 3172 3171 3171 3174 3175 3176 3176 3176 3175 3175 3175 3174 3174 3175 3176 3174 3172 3173 3176 3177 3177 3177
3174 3174 3174 3174 3174 3175 3176 3175 3174 3173 3173 3174 3176 3177 3177 3176 3176 3177 3177 3177 3176 3175 3174 3174 3173 3173 3173 3172 3172 3172 3172 3171 3171 3171 3170 3170 3170 3171 3171 3171 3171 3170 3170 3171 3173 3173 3173 3174 3174 3173 3173 3171 3172 3173 3174 3173 3171 3170 3172 3174 3174 3175
3173 3174 3174 3174 3175 3175 3176 3176 3174 3173 3173 3174 3175 3177 3177 3177 3176 3176 3176 3175 3175 3174 3173 3173 3172 3172 3172 3171 3172 3172 3171 3171 3170 3170 3169 3168 3168 3169 3169 3170 3170 3169 3168 3168 3170 3170 3170 3171 3171 3171 3171 3169 3169 3170 3170 3171 3170 3169 3169 3170 3171 3172
3173 3174 3174 3174 3174 3175 3176 3175 3173 3172 3173 3173 3175 3176 3177 3177 3176 3176 3174 3173 3173 3173 3173 3173 3172 3171 3171 3171 3171 3171 3171 3170 3170 3169 3168 3167 3167 3167 3167 3167 3168 3168 3167 3166 3166 3167 3167 3168 3168 3169 3169 3167 3166 3167 3168 3169 3169 3168 3166 3167 3169 3169
3173 3174 3174 3174 3173 3174 3175 3175 3173 3172 3173 3173 3174 3176 3176 3176 3176 3176 3174 3173 3174 3174 3173 3173 3172 3171 3171 3170 3170 3170 3170 3169 3169 3168 3168 3167 3166 3166 3165 3165 3165 3165 3165 3164 3163 3163 3163 3164 3165 3165 3165 3163 3163 3164 3165 3166 3167 3166 3165 3166 3166 3167
3173 3174 3174 3173 3173 3173 3175 3175 3174 3174 3174 3174 3174 3175 3174 3174 3175 3176 3175 3175 3175 3174 3174 3173 3172 3171 3170 3170 3170 3169 3169 3168 3168 3167 3167 3166 3165 3164 3164 3163 3163 3163 3163 3163 3162 3162 3161 3161 3161 3161 3161 3160 3161 3161 3162 3162 3164 3164 3164 3164 3163 3163
3171 3172 3173 3172 3172 3172 3173 3174 3174 3175 3175 3175 3174 3174 3173 3173 3173 3174 3175 3175 3175 3174 3173 3172 3171 3171 3170 3169 3169 3168 3168 3167 3166 3166 3165 3164 3163 3162 3162 3161 3161 3161 3160 3160 3160 3160 3160 3159 3158 3158 3158 3158 3158 3158 3158 3159 3160 3162 3162 3162 3160 3161
3170 3171 3171 3170 3170 3170 3170 3171 3172 3172 3173 3174 3175 3174 3174 3173 3173 3173 3173 3173 3173 3172 3172 3172 3171 3170 3169 3169 3168 3167 3166 3165 3165 3164 3162 3162 3161 3160 3159 3159 3158 3158 3158 3158 3158 3157 3157 3157 3156 3156 3155 3155 3155 3154 3154 3155 3157 3158 3159 3159 3158 3159
3168 3169 3169 3169 3169 3169 3169 3170 3170 3169 3169 3171 3173 3173 3173 3172 3172 3172 3172 3171 3171 3171 3171 3171 3170 3169 3168 3167 3166 3165 3164 3163 3162 3161 3160 3159 3158 3157 3157 3156 3156 3156 3155 3155 3155 3155 3155 3154 3153 3153 3153 3152 3152 3152 3152 3152 3154 3155 3155 3155 3156 3156
3168 3168 3168 3168 3169 3169 3169 3169 3169 3169 3167 3167 3168 3169 3170 3170 3170 3170 3171 3170 3170 3170 3169 3169 3168 3167 3166 3165 3163 3162 3161 3160 3159 3158 3158 3157 3156 3155 3154 3154 3154 3153 3153 3153 3153 3153 3152 3151 3150 3150 3150 3149 3149 3149 3149 3150 3150 3151 3151 3152 3153 3153
3167 3167 3168 3168 3168 3168 3169 3169 3169 3169 3168 3166 3165 3164 3164 3164 3164 3166 3167 3168 3169 3168 3167 3166 3165 3164 3163 3162 3161 3160 3159 3158 3157 3156 3155 3154 3153 3153 3152 3152 3151 3151 3150 3150 3150 3150 3150 3149 3147 3147 3147 3146 3146 3146 3146 3146 3146 3148 3149 3149 3149 3150
3167 3167 3167 3167 3168 3168 3168 3168 3168 3168 3168 3167 3165 3163 3162 3161 3160 3161 3162 3163 3164 3165 3166 3164 3163 3162 3160 3160 3159 3158 3157 3155 3154 3154 3153 3152 3151 3151 3151 3150 3149 3148 3148 3147 3147 3147 3147 3146 3144 3144 3143 3143 3143 3143 3142 3142 3143 3145 3146 3146 3146 3147
3166 3166 3166 3166 3167 3167 3168 3168 3168 3167 3167 3167 3166 3165 3164 3162 3161 3159 3158 3158 3158 3159 3160 3160 3160 3160 3158 3157 3156 3155 3154 3153 3152 3151 3150 3149 3149 3149 3149 3148 3146 3146 3146 3145 3144 3144 3143 3142 3141 3140 3140 3140 3140 3139 3139 3140 3141 3142 3142 3142 3143 3144
3164 3164 3165 3165 3165 3166 3166 3167 3166 3166 3166 3166 3165 3164 3163 3162 3161 3160 3158 3157 3155 3154 3154 3154 3154 3155 3155 3154 3152 3151 3151 3150 3149 3147 3146 3147 3147 3147 3146 3146 3144 3144 3144 3143 3141 3140 3139 3139 3138 3137 3136 3137 3138 3136 3137 3138 3137 3138 3139 3139 3140 3141
3163 3163 3163 3163 3163 3163 3164 3165 3165 3165 3164 3164 3163 3163 3162 3161 3160 3159 3158 3157 3155 3153 3152 3152 3151 3151 3151 3151 3150 3149 3148 3148 3147 3145 3145 3147 3146 3145 3144 3142 3142 3141 3140 3139 3138 3137 3136 3136 3134 3133 3133 3134 3134 3134 3133 3134 3134 3134 3135 3136 3137 3138
3161 3161 3161 3161 3161 3161 3161 3162 3162 3162 3162 3162 3161 3161 3160 3159 3158 3157 3156 3155 3154 3152 3151 3151 3150 3150 3149 3149 3148 3147 3145 3145 3144 3143 3144 3145 3143 3142 3141 3139 3138 3137 3136 3135 3134 3133 3132 3132 3131 3131 3131 3130 3130 3130 3130 3131 3131 3132 3132 3133 3134 3135
3160 3160 3159 3159 3159 3158 3158 3159 3160 3160 3160 3160 3159 3158 3158 3157 3156 3155 3154 3153 3152 3152 3151 3150 3149 3148 3147 3146 3146 3145 3144 3143 3142 3141 3141 3141 3140 3138 3138 3137 3135 3133 3133 3132 3131 3130 3128 3128 3128 3128 3128 3127 3127 3127 3128 3128 3129 3129 3129 3130 3131 3132
3158 3158 3157 3157 3157 3156 3156 3155 3156 3157 3158 3158 3157 3156 3155 3154 3154 3153 3152 3152 3151 3150 3149 3148 3147 3146 3145 3144 3143 3143 3142 3141 3141 3140 3139 3138 3137 3135 3133 3133 3132 3130 3129 3129 3129 3128 3125 3124 3125 3125 3124 3124 3124 3124 3125 3125 3125 3126 3126 3127 3128 3130
3156 3155 3155 3155 3155 3154 3154 3153 3153 3153 3154 3155 3155 3154 3153 3152 3151 3151 3150 3150 3149 3147 3146 3145 3145 3143 3142 3142 3141 3141 3140 3139 3138 3137 3136 3135 3134 3132 3130 3129 3129 3128 3127 3125 3125 3124 3122 3121 3121 3122 3122 3121 3121 3122 3122 3123 3123 3123 3124 3124 3126 3127
3154 3154 3153 3153 3153 3152 3152 3151 3151 3150 3151 3151 3151 3151 3150 3149 3149 3148 3148 3148 3147 3146 3145 3144 3143 3142 3141 3140 3140 3139 3138 3137 3135 3134 3133 3132 3131 3129 3127 3126 3125 3125 3124 3122 3121 3120 3120 3119 3118 3119 3119 3118 3118 3119 3119 3120 3120 3121 3121 3122 3123 3123
3152 3152 3151 3151 3151 3151 3150 3150 3149 3148 3148 3148 3148 3148 3148 3148 3147 3146 3146 3145 3145 3144 3143 3143 3142 3141 3140 3139 3138 3137 3136 3135 3133 3131 3129 3128 3127 3126 3124 3122 3121 3120 3119 3117 3117 3116 3116 3115 3115 3115 3116 3115 3116 3116 3117 3117 3117 3118 3118 3119 3119 3119
3150 3150 3150 3150 3149 3149 3148 3148 3147 3147 3146 3146 3145 3145 3145 3145 3145 3144 3143 3143 3143 3142 3142 3141 3140 3139 3138 3137 3136 3135 3134 3132 3130 3128 3126 3125 3123 3122 3121 3119 3117 3115 3114 3113 3113 3112 3111 3111 3111 3111 3112 3112 3113 3113 3114 3114 3114 3114 3115 3116 3116 3117
3149 3148 3148 3148 3147 3147 3147 3146 3145 3145 3144 3144 3143 3143 3143 3142 3142 3141 3141 3140 3140 3139 3138 3138 3137 3136 3135 3134 3133 3132 3130 3129 3127 3125 3123 3121 3119 3118 3116 3114 3112 3110 3109 3109 3108 3108 3107 3106 3106 3107 3108 3109 3109 3110 3110 3110 3110 3111 3112 3112 3113 3114
3146 3146 3146 3146 3146 3145 3145 3144 3143 3143 3142 3141 3141 3141 3140 3140 3139 3139 3138 3137 3136 3135 3135 3134 3134 3133 3131 3130 3129 3128 3127 3126 3124 3122 3120 3118 3115 3113 3110 3108 3107 3105 3104 3103 3103 3103 3102 3102 3102 3103 3104 3105 3105 3106 3106 3107 3107 3108 3108 3109 3110 3111
3145 3144 3144 3144 3144 3143 3143 3142 3141 3140 3140 3139 3139 3138 3138 3138 3137 3136 3135 3135 3134 3133 3132 3131 3130 3129 3128 3127 3126 3125 3124 3122 3120 3118 3116 3114 3111 3108 3105 3102 3100 3099 3098 3098 3098 3099 3098 3098 3099 3099 3100 3101 3102 3102 3104 3104 3104 3105 3105 3106 3107 3108
Wind_Speed
2 2 3 5 6 7 6 7 7 7 7 8 7 7 7 7 7 7 8 8 7 6 6 5 5 6 7 7 8 8 8 8 8 7 7 7 7 8 8 9 9 9 10 10 10 10 9 9 8 7 6 6 6 5 4 3 2 3 3 4 4 4
4 3 3 4 5 6 6 6 6 6 6 6 6 6 7 7 7 7 7 7 6 6 7 6 6 7 9 10 10 10 10 10 10 9 9 9 9 9 9 10 10 10 10 11 11 11 10 10 9 9 8 8 8 7 5 4 5 5 5 5 5 6
4 4 4 4 4 4 5 6 6 5 5 5 5 6 6 6 6 6 7 8 8 8 8 8 9 10 11 12 13 14 13 12 12 11 11 11 11 11 11 11 11 12 12 12 12 12 11 11 11 10 10 10 10 9 7 6 7 8 7 7 8 8
4 4 3 3 4 4 4 5 4 3 4 4 4 5 5 5 5 6 7 9 10 10 10 10 9 10 11 13 15 15 16 15 14 13 14 13 13 12 12 12 12 13 14 13 13 13 13 13 12 11 11 12 13 11 8 7 9 10 10 10 10 10
4 4 4 3 4 4 5 4 2 2 4 4 3 3 4 4 4 5 6 8 10 8 9 10 9 9 11 13 15 16 17 17 16 16 16 16 15 14 14 14 14 15 15 15 14 14 14 14 14 14 13 14 15 14 10 8 10 13 13 12 12 12
3 4 4 3 3 4 5 4 3 1 3 4 3 3 5 5 4 5 6 7 7 7 8 9 9 10 12 13 15 15 16 17 18 18 18 18 18 17 16 16 16 17 17 16 16 16 16 16 16 16 15 16 18 17 13 12 13 15 14 13 13 13
2 3 3 3 3 4 4 3 3 2 2 4 4 4 5 5 4 4 5 5 6 7 8 9 11 13 14 14 13 13 15 16 17 17 18 19 20 19 19 18 18 19 19 19 18 18 18 18 18 18 17 18 20 19 17 16 16 16 16 15 15 14
2 3 3 3 3 4 4 4 3 3 2 5 5 5 5 5 4 4 5 5 6 7 7 9 11 13 14 14 13 12 13 14 15 16 18 20 21 21 21 21 20 20 21 21 20 21 20 20 20 19 19 20 21 22 21 19 17 17 16 16 16 15
1 2 2 3 3 4 4 4 4 3 2 3 5 5 4 4 4 4 6 6 5 5 6 7 9 10 10 11 11 11 11 11 12 14 16 19 20 22 23 24 24 22 23 24 23 24 23 22 22 21 20 21 22 24 24 22 19 18 18 17 17 16
2 1 1 2 3 3 4 6 6 4 3 4 4 3 3 3 4 5 5 4 4 5 6 6 7 8 8 9 9 10 10 10 10 12 13 15 17 19 22 25 27 26 25 27 27 26 25 24 22 21 21 22 23 24 25 25 22 20 20 18 18 18
4 3 2 2 2 3 5 6 7 7 5 5 4 3 3 4 4 4 3 3 5 6 6 6 6 7 8 8 8 8 9 9 9 9 10 13 15 16 17 19 25 28 28 29 28 27 26 27 24 22 23 23 23 24 25 27 25 22 21 19 18 19
5 2 2 2 3 3 4 6 7 8 6 5 4 4 5 5 3 2 2 4 6 6 5 5 5 5 6 6 6 7 7 8 8 8 9 11 13 14 15 15 20 27 31 30 28 27 28 28 25 23 24 25 25 24 24 27 28 25 23 21 20 20
4 2 2 3 4 2 3 6 7 7 6 5 3 3 4 5 3 1 2 4 6 6 4 4 4 4 5 5 5 5 6 7 8 8 9 11 12 13 13 14 17 23 28 28 27 28 29 28 25 22 24 26 26 25 24 26 28 28 25 24 22 21
4 3 3 2 3 2 4 6 7 7 6 4 2 2 1 3 2 1 1 3 4 5 4 4 4 5 5 5 4 5 6 7 8 8 9 11 13 13 13 14 16 20 23 24 24 26 28 27 23 21 23 26 27 27 26 25 27 29 28 26 25 23
3 3 3 2 2 3 5 5 5 5 5 5 4 3 3 5 3 2 1 2 3 4 4 4 4 4 5 4 4 5 6 7 8 9 10 12 13 13 13 13 15 18 21 23 24 24 25 26 24 22 24 27 28 28 27 25 26 28 29 28 27 25
3 3 4 3 3 4 5 4 4 4 4 6 5 3 3 5 4 2 1 3 4 4 4 4 3 4 4 3 4 5 6 7 8 9 10 11 12 13 13 13 14 16 18 22 23 22 23 24 25 25 27 29 30 29 28 26 26 28 30 29 27 26
3 4 5 3 2 4 5 5 4 4 4 5 4 2 1 2 3 2 0 2 3 4 5 4 3 4 4 3 4 6 7 8 10 10 10 10 11 12 13 14 15 16 17 20 21 21 22 23 23 25 27 30 31 30 29 28 28 29 30 29 28 27
2 4 5 3 2 3 5 5 4 4 4 4 3 2 1 1 1 3 2 0 3 4 4 4 4 4 5 5 6 7 8 9 11 11 11 11 10 11 12 13 14 15 17 19 21 22 22 23 22 24 26 28 29 29 31 30 29 29 28 28 30 28
2 3 4 2 2 3 4 5 5 4 5 5 3 2 2 3 2 1 2 1 3 4 4 4 3 4 6 6 7 7 8 10 11 12 13 12 12 12 12 13 14 15 16 18 20 21 22 23 23 23 25 26 27 28 30 30 29 29 28 28 32 29
2 3 3 3 3 4 5 6 7 6 5 5 5 4 2 3 3 2 2 2 3 3 4 4 3 4 6 7 7 8 9 10 11 13 14 14 14 14 14 15 15 16 17 18 19 19 21 23 24 24 25 26 27 28 29 29 29 29 29 30 33 29
3 2 2 3 3 4 6 7 8 9 8 7 5 6 4 2 2 2 3 3 2 3 5 5 5 6 7 8 9 10 11 12 13 14 15 15 15 16 16 15 16 16 18 18 18 18 20 22 24 25 25 25 26 28 28 28 29 30 31 31 30 27
2 3 3 3 3 5 7 8 9 10 10 10 9 7 5 4 3 2 3 3 3 4 6 7 8 8 9 10 11 11 13 14 15 16 16 17 17 17 17 16 16 16 17 19 18 18 20 23 25 25 24 26 27 28 29 29 29 30 31 30 28 26
3 4 4 5 6 7 8 9 10 11 12 13 14 13 12 11 10 7 5 6 6 6 7 9 10 11 11 12 12 13 14 15 16 16 17 18 18 18 18 18 17 17 18 19 19 20 21 23 25 25 26 28 27 27 29 30 30 31 30 29 28 28
5 6 7 7 7 8 9 10 11 12 13 13 14 15 15 16 16 15 11 10 10 9 8 9 9 10 12 12 13 14 16 17 17 17 17 19 19 19 18 19 19 19 19 19 20 20 21 24 26 26 27 28 27 27 29 29 29 30 30 30 29 30
7 8 9 9 9 9 9 10 11 13 13 14 14 14 14 14 16 17 17 16 15 14 14 12 10 10 11 13 14 15 17 18 18 18 18 19 20 20 19 20 21 21 20 20 20 21 22 24 26 28 28 27 27 28 27 26 27 28 29 29 28 29
10 11 11 12 12 12 12 12 12 14 14 14 14 14 14 14 14 15 16 17 18 18 18 17 16 14 12 14 15 15 16 18 19 21 20 19 20 21 21 23 24 23 22 22 21 22 23 23 26 29 29 26 27 29 26 25 27 27 27 27 27 28
13 13 15 16 16 16 16 15 15 16 16 15 14 13 13 14 15 15 16 17 17 17 17 16 17 15 14 14 15 16 17 17 19 22 22 20 20 21 23 25 25 24 24 24 23 24 23 23 25 28 28 26 26 28 27 27 27 25 25 27 28 28
15 16 17 18 19 20 19 18 17 17 16 14 13 13 14 14 16 16 16 16 15 15 14 14 14 13 13 13 14 15 17 18 20 22 22 21 22 23 24 26 26 24 25 25 25 25 24 23 25 26 27 27 25 25 26 27 27 25 25 26 27 28
17 18 20 20 21 22 21 20 18 16 15 13 14 14 14 15 16 16 15 13 13 12 13 13 13 12 11 11 12 13 16 17 19 21 21 21 23 25 25 24 25 26 27 27 27 27 25 23 24 25 27 28 26 25 25 26 27 27 27 28 29 29
19 20 21 21 22 22 21 20 17 15 14 14 15 15 16 16 15 13 13 12 12 13 13 12 12 12 11 11 12 13 14 15 16 17 18 20 22 26 26 24 24 27 28 29 29 28 26 24 24 25 26 27 26 25 25 26 28 28 28 29 30 29
20 20 20 20 19 18 17 17 17 16 16 16 15 15 15 15 13 11 11 12 13 14 13 12 12 13 13 13 13 13 13 14 15 17 17 19 21 23 25 25 26 27 28 29 29 28 27 24 24 25 26 26 25 24 24 25 27 27 27 27 27 28
19 18 16 15 15 15 15 16 17 18 18 17 16 14 13 11 11 11 11 11 12 12 13 13 14 14 15 15 14 14 15 16 18 20 21 22 22 23 24 25 27 27 28 29 29 29 28 26 25 25 25 25 25 23 22 22 23 24 24 24 25 28
15 13 12 13 13 14 15 17 18 18 18 17 15 13 12 11 11 11 11 11 12 12 13 14 15 16 16 16 16 16 17 19 21 23 25 26 26 26 26 26 28 29 28 28 29 30 29 27 26 25 25 25 25 23 22 22 22 23 23 24 26 28
13 12 12 13 13 15 16 17 18 18 18 17 15 14 13 12 12 12 12 12 13 13 14 15 16 16 17 17 18 19 20 21 23 25 27 28 29 29 30 30 30 30 29 29 29 30 29 28 26 25 25 25 24 25 24 23 23 25 25 26 27 27
12 12 12 13 15 16 17 18 19 19 18 17 16 15 15 14 14 14 14 14 15 15 16 17 17 18 18 19 19 20 21 23 24 26 28 30 31 33 34 35 33 29 28 29 30 30 29 28 26 23 24 24 24 25 25 24 24 25 25 25 25 25
12 12 12 14 16 17 18 19 19 19 18 18 17 17 16 16 16 16 16 16 16 17 18 19 19 19 20 20 21 21 22 24 26 27 29 31 33 36 38 38 34 28 27 29 30 29 27 25 23 21 22 24 25 25 25 23 23 23 23 22 22 22
12 12 13 15 16 17 18 19 19 19 18 18 18 18 18 18 18 17 17 17 17 18 20 20 21 21 20 21 22 23 24 26 26 28 30 32 35 39 41 39 34 27 27 29 29 28 26 25 23 22 21 23 25 24 22 22 21 20 20 19 20 21
Wind_Direction
256 227 229 227 227 226 227 230 232 228 225 225 221 218 220 221 225 235 243 251 258 264 265 270 273 272 271 268 266 260 247 233 224 213 207 213 214 207 200 196 196 192 184 178 175 176 180 184 189 195 203 212 217 207 188 194 224 220 215 214 227 245
277 265 262 248 235 227 225 228 228 227 233 236 233 232 232 233 239 246 253 260 267 271 275 283 283 277 275 275 273 266 257 247 240 233 222 217 217 218 215 211 210 209 204 197 193 192 193 198 204 208 215 225 233 230 216 225 248 249 246 243 247 257
275 278 278 263 251 241 235 234 231 230 241 244 241 245 248 253 258 259 260 263 267 270 278 283 284 286 278 276 275 264 256 251 247 247 240 230 224 224 223 222 222 219 217 213 209 207 208 211 215 221 227 233 239 240 233 236 251 256 255 255 255 260
269 280 286 279 271 264 257 251 249 252 257 253 249 254 264 272 270 267 270 276 279 275 273 272 278 290 281 275 275 262 252 249 247 249 249 244 236 230 227 228 230 228 225 222 219 218 220 223 224 228 235 240 243 242 240 244 256 257 254 256 258 262
258 272 286 291 292 289 282 286 307 289 270 263 254 271 289 289 285 284 291 297 291 280 276 273 268 272 275 274 272 261 250 247 245 247 248 248 245 239 234 232 234 234 233 230 228 226 227 231 233 234 239 246 250 247 242 243 250 254 254 256 260 264
253 272 283 286 298 301 294 312 354 339 279 273 270 295 301 293 294 296 306 317 305 285 278 272 261 259 265 268 265 259 253 247 243 243 245 246 247 245 241 238 238 238 238 238 236 235 234 237 238 238 242 248 253 252 249 245 245 252 258 260 264 268
256 294 300 300 307 310 314 336 12 26 318 303 309 316 307 294 292 294 304 323 316 300 286 266 258 257 258 261 262 259 255 251 246 245 246 247 247 247 247 244 243 243 241 241 240 240 239 241 243 244 246 251 255 256 253 250 248 254 260 264 267 269
271 317 328 329 328 326 333 353 22 40 345 316 328 338 321 303 297 297 300 307 303 296 287 269 263 261 260 264 268 265 260 257 253 252 251 249 246 247 248 247 247 247 244 242 242 243 242 242 244 246 248 252 257 258 256 253 253 257 261 265 268 270
249 321 353 351 348 347 345 354 12 32 4 315 324 333 313 299 299 299 299 296 287 274 267 267 269 268 269 271 272 270 269 266 260 258 256 252 247 245 247 249 249 249 249 245 242 242 244 244 245 245 248 252 256 260 260 259 258 259 261 263 266 270
136 99 47 21 10 2 347 343 343 341 330 307 308 318 299 292 301 302 300 280 254 252 257 260 265 268 271 273 273 272 273 275 270 263 260 256 252 250 251 252 248 246 250 250 247 247 248 249 247 246 248 251 255 260 264 265 262 259 258 261 267 272
112 94 69 37 0 342 336 334 332 327 317 303 306 317 303 294 298 303 293 256 249 259 263 254 252 260 269 272 270 269 272 277 275 265 258 254 255 257 258 255 245 241 245 251 254 255 256 253 248 246 249 250 253 257 264 268 266 262 260 262 266 272
96 77 39 13 342 331 334 330 322 316 305 298 313 325 312 298 292 298 283 270 270 273 269 255 249 258 269 273 267 267 271 272 271 266 259 255 257 260 262 258 245 239 241 246 252 256 259 255 248 247 250 252 253 253 258 265 268 267 265 265 265 269
94 82 40 9 353 357 334 331 325 314 303 301 319 329 304 291 282 272 288 287 283 283 278 266 267 270 268 268 266 263 265 268 270 270 267 264 263 262 262 257 245 239 239 241 248 255 257 252 248 249 249 251 251 251 253 258 265 267 267 267 267 269
95 88 78 43 14 0 338 343 337 318 314 323 359 38 263 240 242 226 290 300 287 284 279 272 280 285 279 272 274 275 273 277 278 277 273 271 269 266 264 257 244 240 241 240 243 252 257 253 249 247 247 250 250 252 252 252 259 265 268 268 267 269
95 87 93 67 11 0 8 13 347 318 322 338 358 37 118 166 183 212 254 306 295 279 272 274 287 296 292 281 289 301 300 298 292 285 280 275 271 267 265 260 249 243 247 247 242 244 252 255 254 251 250 252 253 254 254 252 254 261 267 267 268 269
110 96 85 49 0 6 31 38 355 327 324 333 344 21 107 150 173 199 262 316 314 301 298 297 302 317 318 305 307 316 320 320 312 303 295 284 274 268 265 262 256 251 251 252 250 246 247 250 254 255 255 256 258 259 258 256 254 258 263 266 270 269
121 105 88 66 24 24 35 38 11 349 341 332 335 354 101 138 151 158 83 326 317 316 319 317 321 341 352 347 338 333 332 330 325 320 312 300 285 272 267 264 261 258 253 251 253 254 255 254 252 253 256 259 261 262 261 259 257 258 260 266 271 267
122 103 89 84 65 53 47 44 41 32 21 359 341 336 293 290 173 164 154 313 325 328 321 311 318 343 355 356 350 342 336 330 326 325 323 316 302 285 274 269 264 260 256 252 252 255 259 260 255 251 253 257 261 262 261 260 256 256 259 264 269 264
100 93 76 48 25 39 40 43 48 59 50 25 11 26 323 309 297 208 174 210 315 322 319 309 311 331 339 341 340 335 330 325 321 319 323 322 312 299 287 278 271 263 258 253 253 255 256 258 255 250 251 255 258 259 259 258 254 254 257 260 266 262
52 79 68 34 17 15 21 26 21 21 24 16 24 39 11 310 297 285 262 248 263 287 305 308 308 319 323 325 325 323 319 316 314 312 313 313 308 303 295 286 277 268 263 257 254 255 255 256 255 253 253 253 253 254 255 255 252 252 253 257 264 258
7 35 31 23 19 6 9 12 9 7 358 355 16 26 12 330 290 269 279 285 279 295 303 298 300 311 315 316 315 312 312 309 306 305 303 302 300 298 295 290 282 272 268 265 261 258 256 255 255 255 255 254 253 253 254 254 252 251 251 257 262 251
340 348 351 0 3 0 3 5 6 6 354 345 349 354 347 326 304 282 292 304 301 305 304 295 297 308 311 310 308 306 305 304 303 300 297 294 291 290 291 290 285 278 272 269 267 262 258 256 255 256 256 254 253 253 255 255 253 251 252 256 256 246
326 323 328 337 348 354 356 357 357 355 350 342 341 342 338 329 324 322 309 296 296 299 305 303 301 308 311 306 303 301 299 299 299 296 292 290 288 287 288 286 284 281 275 272 270 265 262 261 259 256 254 254 255 256 255 254 252 250 250 253 252 246
311 309 314 319 328 337 340 344 344 343 342 340 340 339 335 330 329 328 321 309 302 292 297 304 299 302 302 297 295 295 297 297 295 292 289 287 287 286 286 283 281 281 278 276 273 270 267 265 262 258 254 255 258 259 256 255 254 251 249 249 247 245
293 296 300 306 311 317 324 329 332 332 333 335 334 331 328 326 324 325 324 321 312 302 302 304 302 306 302 298 296 293 296 297 294 290 284 282 286 288 289 286 280 278 278 277 274 271 267 264 263 261 258 255 258 260 260 258 256 253 249 244 242 242
295 299 301 305 310 314 319 322 324 325 328 329 328 326 323 321 321 322 321 320 314 309 312 312 314 321 318 311 308 299 296 297 293 288 284 287 297 302 302 297 289 283 280 278 274 271 271 267 262 261 260 257 257 260 259 257 254 251 246 241 238 241
299 303 305 308 312 314 316 318 320 321 323 325 324 323 322 320 321 320 317 315 311 310 315 318 319 320 318 315 313 304 298 299 299 296 296 301 306 307 307 304 300 293 285 282 277 272 272 270 264 261 261 260 259 258 256 255 255 251 244 239 238 242
299 302 304 307 310 311 312 313 315 317 319 321 321 321 322 322 321 320 318 315 312 311 313 316 315 313 312 311 309 305 302 304 304 302 304 309 308 306 306 305 304 297 288 284 277 269 268 269 266 261 260 261 259 257 255 254 255 251 244 241 238 240
296 299 302 305 307 307 308 309 311 313 314 318 320 320 321 321 321 320 317 313 311 311 311 312 313 315 316 312 309 309 307 307 309 309 312 313 309 305 305 302 300 298 293 289 282 275 272 272 270 265 262 261 259 258 255 251 252 248 245 245 241 238
292 297 300 303 304 304 305 307 309 311 314 318 319 320 321 320 321 319 316 316 314 314 314 316 319 321 323 321 316 315 314 313 316 322 323 319 311 307 307 303 297 297 296 295 291 283 278 276 273 269 266 264 259 257 255 248 246 245 245 247 243 237
289 294 298 300 301 302 305 307 309 313 315 318 320 321 321 321 322 319 317 317 316 317 318 319 322 322 322 322 320 318 321 323 323 324 324 321 315 311 310 305 300 296 293 293 292 286 281 279 273 268 268 265 258 254 253 247 244 244 245 246 242 237
288 293 297 299 301 302 305 307 309 314 317 319 322 323 323 321 319 317 315 314 311 312 313 314 315 316 315 317 318 319 322 324 322 320 319 319 318 318 314 304 301 299 291 288 288 286 285 283 277 271 267 263 256 251 251 250 245 242 242 242 239 238
285 289 292 294 297 300 302 306 310 314 317 319 321 320 320 316 313 312 309 306 304 302 303 304 305 307 308 309 311 314 317 319 319 318 317 316 317 320 318 308 302 300 292 285 283 282 282 283 282 276 269 263 255 249 248 251 247 240 241 242 240 240
279 284 289 292 296 299 301 306 309 311 313 314 314 314 313 311 309 307 305 304 304 303 301 301 301 303 303 303 306 310 313 315 316 317 315 314 315 317 316 312 306 298 291 286 281 278 278 280 279 275 271 264 254 247 246 247 245 240 242 244 241 241
278 285 291 295 298 301 303 306 308 309 309 307 307 307 309 310 309 307 307 308 308 307 305 303 304 304 304 305 308 311 313 315 316 316 315 314 314 315 315 313 308 295 285 283 280 277 276 275 273 270 267 261 250 244 243 244 244 241 242 244 241 238
275 283 291 296 299 301 303 306 307 307 307 305 304 305 308 310 309 309 310 311 312 310 308 307 308 307 307 308 309 312 315 317 317 315 315 315 314 315 315 313 308 293 277 275 275 273 271 269 268 266 262 256 247 243 244 242 239 237 235 236 235 232
276 285 292 296 299 301 303 305 307 307 305 304 303 305 307 308 307 308 310 312 313 313 312 311 310 309 309 309 310 314 316 316 316 315 315 315 315 316 316 313 307 292 275 271 271 270 267 263 261 260 258 254 249 247 246 238 230 227 226 227 228 227